Time,TemperatureF,DewpointF,PressureIn,WindDirection,WindDirectionDegrees,WindSpeedMPH,WindSpeedGustMPH,Humidity,HourlyPrecipIn,Conditions,Clouds,dailyrainin,SoftwareType,DateUTC
2015-01-30 00:02:00,27.5,21.2,30.18,ESE,123,0.0,0.0,77,0.00,,,0.00,VWS V12.08,2015-01-30 05:02:00,
2015-01-30 00:10:00,27.5,21.2,30.18,ESE,123,0.0,0.0,77,0.00,,,0.00,VWS V12.08,2015-01-30 05:10:00,
2015-01-30 00:16:00,27.5,21.2,30.18,ESE,123,0.0,0.0,77,0.00,,,0.00,VWS V12.08,2015-01-30 05:16:00,
2015-01-30 00:25:00,27.7,21.4,30.15,ESE,123,0.0,0.0,77,0.00,,,0.00,VWS V12.08,2015-01-30 05:25:00,
2015-01-30 00:31:00,27.7,21.4,30.15,ESE,123,0.0,0.0,77,0.00,,,0.00,VWS V12.08,2015-01-30 05:31:00,
2015-01-30 00:40:00,27.7,21.4,30.15,ESE,123,0.0,0.0,77,0.00,,,0.00,VWS V12.08,2015-01-30 05:40:00,
2015-01-30 00:46:00,27.7,21.4,30.15,ESE,123,0.0,0.0,77,0.00,,,0.00,VWS V12.08,2015-01-30 05:46:00,
2015-01-30 00:55:00,27.7,21.4,30.15,ESE,123,0.0,0.0,77,0.00,,,0.00,VWS V12.08,2015-01-30 05:55:00,
2015-01-30 01:02:00,27.9,21.6,30.15,ESE,123,0.0,0.0,77,0.00,,,0.00,VWS V12.08,2015-01-30 06:02:00,
2015-01-30 01:11:00,27.9,21.6,30.12,ESE,123,0.0,0.0,77,0.00,,,0.00,VWS V12.08,2015-01-30 06:11:00,
2015-01-30 01:16:00,27.9,21.6,30.12,ESE,123,0.0,0.0,77,0.00,,,0.00,VWS V12.08,2015-01-30 06:16:00,
2015-01-30 01:24:00,27.9,22.1,30.12,ESE,123,0.0,0.0,78,0.00,,,0.00,VWS V12.08,2015-01-30 06:24:00,
2015-01-30 01:30:00,28.0,22.1,30.12,ESE,123,0.0,0.0,78,0.00,,,0.00,VWS V12.08,2015-01-30 06:30:00,
2015-01-30 01:40:00,28.2,22.2,30.12,ESE,123,0.0,0.0,78,0.00,,,0.00,VWS V12.08,2015-01-30 06:40:00,
2015-01-30 01:46:00,28.2,22.2,30.09,ESE,123,0.0,0.0,78,0.00,,,0.00,VWS V12.08,2015-01-30 06:46:00,
2015-01-30 01:55:00,28.4,22.4,30.09,ESE,123,0.0,0.0,78,0.00,,,0.00,VWS V12.08,2015-01-30 06:55:00,
2015-01-30 02:03:00,28.4,22.4,30.09,ESE,123,0.0,0.0,78,0.00,,,0.00,VWS V12.08,2015-01-30 07:03:00,
2015-01-30 02:10:00,28.6,22.6,30.09,ESE,123,0.0,0.0,78,0.00,,,0.00,VWS V12.08,2015-01-30 07:10:00,
2015-01-30 02:15:00,28.8,22.8,30.09,ESE,123,0.0,0.0,78,0.00,,,0.00,VWS V12.08,2015-01-30 07:15:00,
2015-01-30 02:25:00,28.8,22.8,30.09,ESE,123,0.0,0.0,78,0.00,,,0.00,VWS V12.08,2015-01-30 07:25:00,
2015-01-30 02:30:00,28.9,22.8,30.09,ESE,123,0.0,0.0,78,0.00,,,0.00,VWS V12.08,2015-01-30 07:30:00,
2015-01-30 02:40:00,28.9,23.3,30.09,ESE,123,0.0,0.0,79,0.00,,,0.00,VWS V12.08,2015-01-30 07:40:00,
2015-01-30 02:46:00,29.1,23.4,30.09,ESE,123,0.0,0.0,79,0.00,,,0.00,VWS V12.08,2015-01-30 07:46:00,
2015-01-30 02:55:00,29.3,23.6,30.09,ESE,123,0.0,0.0,79,0.00,,,0.00,VWS V12.08,2015-01-30 07:55:00,
2015-01-30 03:01:00,29.3,23.6,30.06,ESE,123,0.0,0.0,79,0.00,,,0.00,VWS V12.08,2015-01-30 08:01:00,
2015-01-30 03:10:00,29.5,23.8,30.06,ESE,123,0.0,0.0,79,0.00,,,0.00,VWS V12.08,2015-01-30 08:10:00,
2015-01-30 03:16:00,29.5,24.0,30.06,ESE,123,0.0,0.0,79,0.00,,,0.00,VWS V12.08,2015-01-30 08:16:00,
2015-01-30 03:25:00,29.8,24.4,30.06,ESE,123,0.0,0.0,80,0.00,,,0.00,VWS V12.08,2015-01-30 08:25:00,
2015-01-30 03:31:00,30.2,24.6,30.06,South,173,0.0,0.0,80,0.00,,,0.00,VWS V12.08,2015-01-30 08:31:00,
2015-01-30 03:40:00,30.4,25.0,30.06,South,173,0.0,0.0,80,0.00,,,0.00,VWS V12.08,2015-01-30 08:40:00,
2015-01-30 03:46:00,30.6,25.1,30.03,South,173,0.0,0.0,80,0.00,,,0.00,VWS V12.08,2015-01-30 08:46:00,
2015-01-30 03:55:00,30.7,25.8,30.03,South,173,0.0,0.0,81,0.00,,,0.00,VWS V12.08,2015-01-30 08:55:00,
2015-01-30 04:01:00,30.9,26.0,30.03,South,174,0.0,3.1,81,0.00,,,0.00,VWS V12.08,2015-01-30 09:01:00,
2015-01-30 04:10:00,31.3,26.4,30.03,South,186,0.0,0.0,82,0.00,,,0.00,VWS V12.08,2015-01-30 09:10:00,
2015-01-30 04:16:00,31.6,26.8,30.03,East,101,0.0,3.1,82,0.00,,,0.00,VWS V12.08,2015-01-30 09:16:00,
2015-01-30 04:25:00,32.0,27.6,30.03,East,92,0.0,0.0,83,0.00,,,0.00,VWS V12.08,2015-01-30 09:25:00,
2015-01-30 04:31:00,32.2,27.6,30.00,SSE,151,0.0,0.0,83,0.00,,,0.00,VWS V12.08,2015-01-30 09:31:00,
2015-01-30 04:40:00,32.4,28.1,30.00,SE,139,0.0,2.2,84,0.00,,,0.00,VWS V12.08,2015-01-30 09:40:00,
2015-01-30 04:45:00,32.5,28.2,30.00,ENE,71,0.0,3.1,84,0.00,,,0.00,VWS V12.08,2015-01-30 09:45:00,
2015-01-30 04:55:00,32.7,28.7,30.00,SSE,154,0.0,3.1,85,0.00,,,0.00,VWS V12.08,2015-01-30 09:55:00,
2015-01-30 05:00:00,32.7,28.7,30.00,ESE,117,0.0,3.1,85,0.00,,,0.00,VWS V12.08,2015-01-30 10:00:00,
2015-01-30 05:10:00,32.9,28.9,30.00,East,96,0.0,2.7,85,0.00,,,0.00,VWS V12.08,2015-01-30 10:10:00,
2015-01-30 05:15:00,32.9,29.2,30.00,South,170,0.0,3.6,86,0.00,,,0.00,VWS V12.08,2015-01-30 10:15:00,
2015-01-30 05:25:00,33.1,29.4,29.97,ESE,117,0.0,4.0,86,0.00,,,0.00,VWS V12.08,2015-01-30 10:25:00,
2015-01-30 05:30:00,33.1,29.4,29.97,ESE,107,0.0,4.0,86,0.00,,,0.00,VWS V12.08,2015-01-30 10:30:00,
2015-01-30 05:40:00,33.1,29.8,29.97,SSE,151,0.0,4.0,87,0.00,,,0.00,VWS V12.08,2015-01-30 10:40:00,
2015-01-30 05:45:00,33.3,29.8,29.97,SE,140,0.0,5.4,87,0.00,,,0.00,VWS V12.08,2015-01-30 10:45:00,
2015-01-30 05:55:00,33.3,29.8,29.97,East,97,0.0,5.4,87,0.00,,,0.00,VWS V12.08,2015-01-30 10:55:00,
2015-01-30 06:00:00,33.3,29.8,29.97,ESE,113,0.0,5.4,87,0.00,,,0.00,VWS V12.08,2015-01-30 11:00:00,
2015-01-30 06:10:00,33.3,30.1,29.97,ESE,113,0.0,3.6,88,0.00,,,0.00,VWS V12.08,2015-01-30 11:10:00,
2015-01-30 06:15:00,33.3,30.1,29.97,SE,137,0.0,3.6,88,0.00,,,0.00,VWS V12.08,2015-01-30 11:15:00,
2015-01-30 06:25:00,33.4,30.3,29.94,ESE,102,0.0,2.7,88,0.00,,,0.00,VWS V12.08,2015-01-30 11:25:00,
2015-01-30 06:30:00,33.4,30.3,29.94,ESE,108,0.0,2.7,88,0.00,,,0.00,VWS V12.08,2015-01-30 11:30:00,
2015-01-30 06:40:00,33.4,30.3,29.94,NNE,16,0.0,2.7,88,0.00,,,0.00,VWS V12.08,2015-01-30 11:40:00,
2015-01-30 06:45:00,33.4,30.5,29.94,ESE,114,0.0,0.0,89,0.00,,,0.00,VWS V12.08,2015-01-30 11:45:00,
2015-01-30 06:55:00,33.4,30.5,29.94,South,189,0.0,0.0,89,0.00,,,0.00,VWS V12.08,2015-01-30 11:55:00,
2015-01-30 07:00:00,33.4,30.7,29.94,SW,233,2.7,2.7,89,0.00,,,0.00,VWS V12.08,2015-01-30 12:00:00,
2015-01-30 07:10:00,33.6,30.5,29.94,SSW,203,0.0,2.7,89,0.00,,,0.00,VWS V12.08,2015-01-30 12:10:00,
2015-01-30 07:15:00,33.6,30.5,29.94,SSW,198,0.0,2.7,89,0.00,,,0.00,VWS V12.08,2015-01-30 12:15:00,
2015-01-30 07:25:00,33.6,30.5,29.94,SSE,150,0.0,0.0,89,0.00,,,0.00,VWS V12.08,2015-01-30 12:25:00,
2015-01-30 07:30:00,33.4,30.7,29.94,South,176,0.0,0.0,89,0.00,,,0.00,VWS V12.08,2015-01-30 12:30:00,
2015-01-30 07:40:00,33.6,30.5,29.91,South,175,0.0,4.0,89,0.00,,,0.00,VWS V12.08,2015-01-30 12:40:00,
2015-01-30 07:46:00,33.4,30.7,29.91,South,181,0.0,3.1,89,0.00,,,0.00,VWS V12.08,2015-01-30 12:46:00,
2015-01-30 07:55:00,33.6,30.5,29.91,SSW,200,3.6,3.6,89,0.08,,,0.08,VWS V12.08,2015-01-30 12:55:00,
2015-01-30 08:01:00,33.6,31.7,29.91,SSW,207,0.0,4.9,89,0.08,,,0.08,VWS V12.08,2015-01-30 13:01:00,
2015-01-30 08:10:00,34.2,32.2,29.91,South,173,0.0,3.6,91,0.08,,,0.08,VWS V12.08,2015-01-30 13:10:00,
2015-01-30 08:20:00,34.3,31.8,29.91,South,186,0.0,3.6,91,0.08,,,0.08,VWS V12.08,2015-01-30 13:20:00,
2015-01-30 08:25:00,34.5,32.2,29.91,South,176,0.0,2.2,91,0.08,,,0.08,VWS V12.08,2015-01-30 13:25:00,
2015-01-30 08:30:00,34.5,32.4,29.91,SW,224,0.0,2.2,91,0.08,,,0.08,VWS V12.08,2015-01-30 13:30:00,
2015-01-30 08:40:00,34.3,32.3,29.91,SSW,192,0.0,2.2,92,0.08,,,0.08,VWS V12.08,2015-01-30 13:40:00,
2015-01-30 08:45:00,34.3,32.3,29.91,SE,139,0.0,0.0,92,0.08,,,0.08,VWS V12.08,2015-01-30 13:45:00,
2015-01-30 08:55:00,34.3,32.5,29.91,SW,217,0.0,2.7,92,0.08,,,0.08,VWS V12.08,2015-01-30 13:55:00,
2015-01-30 09:00:00,34.5,32.7,29.91,SSE,159,0.0,2.7,93,0.08,,,0.08,VWS V12.08,2015-01-30 14:00:00,
2015-01-30 09:10:00,34.3,32.7,29.91,SSW,204,0.0,2.7,93,0.00,,,0.08,VWS V12.08,2015-01-30 14:10:00,
2015-01-30 09:15:00,34.7,33.3,29.91,SSE,159,0.0,4.0,94,0.00,,,0.08,VWS V12.08,2015-01-30 14:15:00,
2015-01-30 09:25:00,34.7,33.3,29.88,South,191,0.0,2.2,94,0.00,,,0.08,VWS V12.08,2015-01-30 14:25:00,
2015-01-30 09:30:00,34.7,33.4,29.88,SSE,149,0.0,2.7,94,0.00,,,0.08,VWS V12.08,2015-01-30 14:30:00,
2015-01-30 09:40:00,34.5,33.2,29.88,SSW,202,0.0,2.7,95,0.00,,,0.08,VWS V12.08,2015-01-30 14:40:00,
2015-01-30 09:45:00,34.5,33.5,29.88,South,190,0.0,3.6,95,0.00,,,0.08,VWS V12.08,2015-01-30 14:45:00,
2015-01-30 09:55:00,34.3,33.3,29.88,SSW,201,0.0,3.6,96,0.00,,,0.08,VWS V12.08,2015-01-30 14:55:00,
2015-01-30 10:00:00,34.3,33.3,29.88,South,182,0.0,3.6,97,0.00,,,0.08,VWS V12.08,2015-01-30 15:00:00,
2015-01-30 10:10:00,34.2,33.4,29.88,East,92,0.0,0.0,97,0.00,,,0.08,VWS V12.08,2015-01-30 15:10:00,
2015-01-30 10:15:00,34.2,33.4,29.88,East,92,0.0,0.0,98,0.00,,,0.08,VWS V12.08,2015-01-30 15:15:00,
2015-01-30 10:25:00,34.2,33.7,29.85,ESE,118,0.0,0.0,98,0.00,,,0.08,VWS V12.08,2015-01-30 15:25:00,
2015-01-30 10:30:00,34.9,34.5,29.85,South,190,0.0,0.0,98,0.00,,,0.08,VWS V12.08,2015-01-30 15:30:00,
2015-01-30 10:40:00,35.2,34.7,29.85,SSE,150,0.0,0.0,98,0.00,,,0.08,VWS V12.08,2015-01-30 15:40:00,
2015-01-30 10:45:00,35.2,34.7,29.85,SSE,150,0.0,0.0,98,0.00,,,0.08,VWS V12.08,2015-01-30 15:45:00,
2015-01-30 10:55:00,35.4,34.7,29.85,SSE,150,0.0,0.0,98,0.00,,,0.08,VWS V12.08,2015-01-30 15:55:00,
2015-01-30 11:00:00,35.4,34.9,29.85,SSE,150,0.0,0.0,98,0.00,,,0.08,VWS V12.08,2015-01-30 16:00:00,
2015-01-30 11:10:00,35.6,35.1,29.85,SE,146,0.0,0.0,98,0.00,,,0.08,VWS V12.08,2015-01-30 16:10:00,
2015-01-30 11:15:00,35.6,35.1,29.85,SE,146,0.0,0.0,98,0.00,,,0.08,VWS V12.08,2015-01-30 16:15:00,
2015-01-30 11:25:00,35.4,35.1,29.83,SE,146,0.0,0.0,98,0.00,,,0.08,VWS V12.08,2015-01-30 16:25:00,
2015-01-30 11:30:00,35.4,34.9,29.83,SE,146,0.0,0.0,98,0.00,,,0.08,VWS V12.08,2015-01-30 16:30:00,
2015-01-30 11:40:00,35.4,34.7,29.83,WNW,288,0.0,0.0,98,0.00,,,0.08,VWS V12.08,2015-01-30 16:40:00,
2015-01-30 11:45:00,35.1,34.5,29.83,WNW,299,0.0,0.0,98,0.00,,,0.08,VWS V12.08,2015-01-30 16:45:00,
2015-01-30 11:55:00,35.1,34.5,29.83,WNW,285,0.0,0.0,98,0.00,,,0.08,VWS V12.08,2015-01-30 16:55:00,
2015-01-30 12:00:00,35.2,34.5,29.83,WNW,298,0.0,0.0,98,0.00,,,0.08,VWS V12.08,2015-01-30 17:00:00,
2015-01-30 12:10:00,34.5,34.0,29.80,WNW,298,0.0,0.0,98,0.00,,,0.08,VWS V12.08,2015-01-30 17:10:00,
2015-01-30 12:15:00,34.5,34.0,29.80,WNW,298,0.0,0.0,98,0.00,,,0.08,VWS V12.08,2015-01-30 17:15:00,
2015-01-30 12:25:00,34.7,34.4,29.80,NNW,336,0.0,0.0,98,0.00,,,0.08,VWS V12.08,2015-01-30 17:25:00,
2015-01-30 12:30:00,35.4,34.9,29.80,NW,307,0.0,0.0,98,0.00,,,0.08,VWS V12.08,2015-01-30 17:30:00,
2015-01-30 12:40:00,35.6,35.1,29.80,NW,325,0.0,0.0,98,0.00,,,0.08,VWS V12.08,2015-01-30 17:40:00,
2015-01-30 12:45:00,35.6,35.1,29.80,NW,324,0.0,0.0,98,0.00,,,0.08,VWS V12.08,2015-01-30 17:45:00,
2015-01-30 12:55:00,35.6,35.1,29.77,NW,324,0.0,0.0,98,0.00,,,0.08,VWS V12.08,2015-01-30 17:55:00,
2015-01-30 13:01:00,35.6,35.1,29.77,NW,324,0.0,0.0,98,0.00,,,0.08,VWS V12.08,2015-01-30 18:01:00,
2015-01-30 13:10:00,35.6,35.1,29.77,NW,324,0.0,0.0,98,0.00,,,0.08,VWS V12.08,2015-01-30 18:10:00,
2015-01-30 13:16:00,35.4,34.9,29.77,NW,325,0.0,0.0,98,0.00,,,0.08,VWS V12.08,2015-01-30 18:16:00,
2015-01-30 13:26:00,35.4,34.9,29.77,NW,324,0.0,0.0,98,0.00,,,0.08,VWS V12.08,2015-01-30 18:26:00,
2015-01-30 13:31:00,35.4,34.9,29.77,NW,325,0.0,0.0,98,0.00,,,0.08,VWS V12.08,2015-01-30 18:31:00,
2015-01-30 13:41:00,35.4,34.9,29.77,NW,324,0.0,0.0,98,0.00,,,0.08,VWS V12.08,2015-01-30 18:41:00,
2015-01-30 13:46:00,35.4,34.9,29.77,NW,324,0.0,0.0,98,0.00,,,0.08,VWS V12.08,2015-01-30 18:46:00,
2015-01-30 13:56:00,35.4,34.9,29.77,NW,324,0.0,0.0,98,0.00,,,0.08,VWS V12.08,2015-01-30 18:56:00,
2015-01-30 14:01:00,35.4,35.1,29.77,WNW,298,0.0,3.6,98,0.00,,,0.08,VWS V12.08,2015-01-30 19:01:00,
2015-01-30 14:11:00,35.2,34.7,29.77,North,0,0.0,4.0,98,0.00,,,0.08,VWS V12.08,2015-01-30 19:11:00,
2015-01-30 14:16:00,35.1,34.4,29.77,NW,304,0.0,4.0,98,0.00,,,0.08,VWS V12.08,2015-01-30 19:16:00,
2015-01-30 14:21:00,34.9,34.2,29.77,NNW,336,2.7,4.0,98,0.00,,,0.08,VWS V12.08,2015-01-30 19:21:00,
2015-01-30 14:26:00,34.5,34.2,29.77,North,353,0.0,3.1,98,0.00,,,0.08,VWS V12.08,2015-01-30 19:26:00,
2015-01-30 14:31:00,34.5,34.0,29.77,NNW,338,0.0,3.1,98,0.00,,,0.08,VWS V12.08,2015-01-30 19:31:00,
2015-01-30 14:41:00,34.3,33.8,29.77,NW,314,0.0,3.1,98,0.00,,,0.08,VWS V12.08,2015-01-30 19:41:00,
2015-01-30 14:46:00,34.2,33.7,29.77,North,357,0.0,0.0,98,0.00,,,0.08,VWS V12.08,2015-01-30 19:46:00,
2015-01-30 14:56:00,34.0,33.5,29.77,North,0,0.0,4.0,98,0.00,,,0.08,VWS V12.08,2015-01-30 19:56:00,
2015-01-30 15:01:00,34.0,33.5,29.77,NNW,327,0.0,4.0,98,0.00,,,0.08,VWS V12.08,2015-01-30 20:01:00,
2015-01-30 15:11:00,34.0,33.5,29.77,North,357,0.0,2.7,98,0.00,,,0.08,VWS V12.08,2015-01-30 20:11:00,
2015-01-30 15:16:00,34.0,33.5,29.77,North,0,0.0,2.7,98,0.00,,,0.08,VWS V12.08,2015-01-30 20:16:00,
2015-01-30 15:26:00,33.8,33.3,29.74,North,0,0.0,0.0,98,0.00,,,0.08,VWS V12.08,2015-01-30 20:26:00,
2015-01-30 15:35:00,33.8,33.3,29.74,NNW,331,0.0,2.7,98,0.00,,,0.08,VWS V12.08,2015-01-30 20:35:00,
2015-01-30 15:40:00,33.8,33.3,29.74,NNW,345,0.0,2.7,98,0.00,,,0.08,VWS V12.08,2015-01-30 20:40:00,
2015-01-30 15:45:00,33.6,33.1,29.77,NNW,345,0.0,2.7,98,0.00,,,0.08,VWS V12.08,2015-01-30 20:45:00,